Weather History for Petersburg, WV

Change the Weather History Date:

Tuesday, January 21, 2014

  Actual Average (KEKN) Record (KEKN)
Temperature  
Mean Temperature 28 °F 29 °F  
Max Temperature 36 °F 39 °F 72 °F (1906)
Min Temperature 18 °F 19 °F -23 °F (1984)
Degree Days  
Heating Degree Days 37 36  
Month to date heating degree days 756  
Since 1 July heating degree days 3047  
Cooling Degree Days 0 0  
Month to date cooling degree days 0  
Year to date cooling degree days 0  
Moisture  
Dew Point 25 °F    
Average Humidity 81    
Maximum Humidity 93    
Minimum Humidity 62    
Precipitation  
Precipitation 0.00 in 0.10 in 1.76 in (1999)
Month to date precipitation 2.19  
Year to date precipitation 2.19  
Snow  
Snow 0.00 in - - ()
Month to date snowfall  
Since 1 September snowfall  
Snow Depth -    
Sea Level Pressure  
Sea Level Pressure 29.82 in    
Wind  
Wind Speed 0 mph (NNW)    
Max Wind Speed 12 mph    
Max Gust Speed 16 mph    
Visibility 5 miles    
Events Snow    
T = Trace of Precipitation, MM = Missing Value Source: NWS Daily Summary

Daily Weather History Graph

Daily Weather History Graph

Search for Another Location

Airport:

Trip Planner

Search our weather history database for the weather conditions in past years. The results will help you decide how hot, cold, wet, or windy it might be!

Date:

Astronomy

Jan. 21, 2014 Rise Set
Actual Time 7:31 AM EST 5:25 PM EST
Civil Twilight 7:02 AM EST 5:54 PM EST
Nautical Twilight 6:29 AM EST 6:26 PM EST
Astronomical Twilight 5:57 AM EST 6:58 PM EST
Moon 10:53 PM EST 10:02 AM EST
Length of Visible Light 10h 51m
Length of Day
9h 54m
Waning Gibbous, 75% of the Moon is Illuminated
Jan 21
Waning Gibbous
Jan 24
Last Quarter
Jan 30
New
Feb 6
First Quarter
Feb 14
Full

Hourly Weather History & Observations

Time (EST) Temp. Windchill Dew Point Humidity Pressure Visibility Wind Dir Wind Speed Gust Speed Precip Events Conditions
12:15 AM 37.6 °F - 28.2 °F 69% 29.86 in 10.0 mi Calm Calm - N/A   Overcast
12:35 AM 36.1 °F - 27.9 °F 72% 29.85 in 10.0 mi Calm Calm - N/A   Mostly Cloudy
12:55 AM 35.2 °F - 28.6 °F 77% 29.85 in 10.0 mi Calm Calm - N/A   Mostly Cloudy
1:15 AM 35.2 °F - 28.4 °F 76% 29.84 in 10.0 mi Calm Calm - N/A   Overcast
1:35 AM 35.6 °F - 30.2 °F 81% 29.83 in 10.0 mi Calm Calm - N/A   Overcast
1:55 AM 35.8 °F - 30.2 °F 80% 29.83 in 10.0 mi Calm Calm - N/A   Overcast
2:15 AM 35.6 °F - 28.6 °F 76% 29.83 in 10.0 mi Calm Calm - N/A   Overcast
2:35 AM 35.4 °F - 30.2 °F 81% 29.83 in 10.0 mi Calm Calm - N/A   Overcast
2:55 AM 34.9 °F - 28.8 °F 78% 29.82 in 10.0 mi Calm Calm - N/A   Overcast
3:15 AM 34.0 °F - 27.1 °F 76% 29.82 in 10.0 mi Calm Calm - N/A   Overcast
3:35 AM 34.0 °F - 28.9 °F 82% 29.82 in 10.0 mi Calm Calm - N/A   Overcast
3:55 AM 33.8 °F - 28.4 °F 81% 29.81 in 7.0 mi Calm Calm - N/A   Overcast
4:15 AM 33.8 °F - 28.2 °F 80% 29.81 in 10.0 mi Calm Calm - N/A   Overcast
4:35 AM 34.0 °F - 29.5 °F 84% 29.80 in 7.0 mi Calm Calm - N/A   Overcast
4:55 AM 35.4 °F - 30.0 °F 81% 29.79 in 10.0 mi Calm Calm - N/A   Overcast
5:15 AM 36.0 °F - 29.8 °F 78% 29.77 in 10.0 mi Calm Calm - N/A   Overcast
5:35 AM 36.5 °F - 30.0 °F 77% 29.78 in 5.0 mi Calm Calm - N/A Snow Light Snow
5:55 AM 35.4 °F - 30.2 °F 81% 29.79 in 0.8 mi Calm Calm - N/A Snow Snow
6:15 AM 34.9 °F - 30.9 °F 85% 29.79 in 0.5 mi Calm Calm - N/A Snow Heavy Snow
6:35 AM 34.9 °F - 31.8 °F 89% 29.79 in 0.5 mi Calm Calm - N/A Snow Heavy Snow
6:55 AM 34.7 °F - 32.0 °F 90% 29.79 in 0.5 mi Calm Calm - N/A Snow Snow
7:15 AM 34.3 °F - 32.0 °F 91% 29.79 in 0.8 mi Calm Calm - N/A Snow Snow
7:35 AM 34.0 °F - 32.0 °F 92% 29.79 in 0.8 mi Calm Calm - N/A Snow Snow
7:55 AM 34.0 °F - 32.0 °F 92% 29.79 in 0.8 mi Calm Calm - N/A Snow Snow
8:15 AM 33.8 °F - 32.0 °F 93% 29.79 in 0.5 mi Calm Calm - N/A Snow Snow
8:35 AM 33.8 °F - 31.6 °F 92% 29.80 in 0.5 mi Calm Calm - N/A Snow Snow
8:55 AM 33.8 °F - 31.5 °F 91% 29.80 in 0.5 mi Calm Calm - N/A Snow Snow
9:15 AM 33.8 °F - 31.3 °F 90% 29.80 in 0.5 mi Calm Calm - N/A Snow Snow
9:35 AM 33.8 °F - 31.1 °F 90% 29.80 in 0.5 mi Calm Calm - N/A Snow Snow
9:55 AM 34.3 °F - 31.6 °F 90% 29.80 in 0.8 mi Calm Calm - N/A Snow Light Snow
10:15 AM 34.9 °F - 31.6 °F 88% 29.81 in 0.5 mi Calm Calm - N/A Snow Snow
10:35 AM 34.9 °F - 31.1 °F 86% 29.80 in 0.8 mi Calm Calm - N/A Snow Light Snow
10:55 AM 34.7 °F - 30.9 °F 86% 29.80 in 1.0 mi Calm Calm - N/A Snow Light Snow
11:15 AM 34.9 °F - 30.9 °F 85% 29.79 in 1.0 mi Calm Calm - N/A Snow Light Snow
11:35 AM 34.9 °F - 30.7 °F 85% 29.77 in 1.2 mi Calm Calm - N/A Snow Light Snow
11:55 AM 34.9 °F - 30.2 °F 83% 29.76 in 1.5 mi Calm Calm - N/A Snow Light Snow
12:15 PM 35.6 °F - 30.2 °F 81% 29.75 in 2.0 mi Calm Calm - N/A Snow Light Snow
12:35 PM 35.1 °F - 30.0 °F 82% 29.74 in 2.5 mi Calm Calm - N/A Snow Light Snow
12:55 PM 34.9 °F - 29.3 °F 80% 29.73 in 5.0 mi Calm Calm - N/A Snow Light Snow
1:15 PM 34.7 °F - 29.1 °F 80% 29.73 in 2.5 mi Calm Calm - N/A Snow Light Snow
1:35 PM 33.8 °F - 28.4 °F 81% 29.73 in 7.0 mi Calm Calm - N/A Snow Light Snow
1:55 PM 32.7 °F - 27.5 °F 81% 29.73 in 2.5 mi Calm Calm - N/A Snow Light Snow
2:15 PM 32.4 °F - 27.3 °F 82% 29.74 in 1.8 mi Calm Calm - N/A Snow Light Snow
2:35 PM 32.2 °F - 27.0 °F 81% 29.74 in 1.2 mi Calm Calm - N/A Snow Light Snow
2:55 PM 32.0 °F - 26.6 °F 80% 29.75 in 1.8 mi Calm Calm - N/A Snow Light Snow
3:15 PM 31.6 °F - 25.5 °F 78% 29.76 in 1.8 mi Calm Calm - N/A Snow Light Snow
3:35 PM 30.7 °F - 25.3 °F 80% 29.77 in 1.2 mi Calm Calm - N/A Snow Light Snow
3:55 PM 29.5 °F 20.4 °F 23.9 °F 80% 29.78 in 4.0 mi North 10.4 mph - N/A Snow Light Snow
4:15 PM 28.8 °F - 23.0 °F 79% 29.79 in 4.0 mi Calm Calm - N/A Snow Light Snow
4:35 PM 28.6 °F - 23.0 °F 80% 29.80 in 5.0 mi Calm Calm - N/A Snow Light Snow
4:55 PM 28.2 °F - 23.2 °F 81% 29.81 in 3.0 mi Calm Calm - N/A Snow Light Snow
5:15 PM 28.0 °F - 23.5 °F 83% 29.82 in 1.2 mi Calm Calm - N/A Snow Light Snow
5:35 PM 27.3 °F - 22.8 °F 83% 29.83 in 2.5 mi Calm Calm - N/A Snow Light Snow
5:55 PM 27.1 °F - 23.0 °F 84% 29.84 in 1.5 mi Calm Calm - N/A Snow Light Snow
6:15 PM 27.0 °F - 23.0 °F 85% 29.85 in 1.8 mi Calm Calm - N/A Snow Light Snow
6:35 PM 26.6 °F - 22.8 °F 86% 29.86 in 2.5 mi Calm Calm - N/A Snow Light Snow
6:55 PM 25.9 °F - 22.1 °F 86% 29.87 in 3.0 mi Calm Calm - N/A Snow Light Snow
7:15 PM 25.5 °F - 21.6 °F 85% 29.88 in 3.0 mi Calm Calm - N/A Snow Light Snow
7:35 PM 25.0 °F - 21.2 °F 86% 29.88 in 4.0 mi Calm Calm - N/A Snow Light Snow
7:55 PM 24.6 °F - 20.7 °F 85% 29.88 in 10.0 mi Calm Calm - N/A Snow Light Snow
8:15 PM 23.5 °F - 17.8 °F 79% 29.89 in 10.0 mi Calm Calm - N/A   Overcast
8:35 PM 22.8 °F - 15.8 °F 74% 29.90 in 10.0 mi Calm Calm - N/A   Overcast
8:55 PM 21.7 °F - 13.8 °F 72% 29.91 in 10.0 mi Calm Calm - N/A   Overcast
9:15 PM 20.8 °F - 12.7 °F 71% 29.92 in 10.0 mi Calm Calm - N/A   Overcast
9:35 PM 20.3 °F 9.8 °F 11.1 °F 68% 29.92 in 10.0 mi North 9.2 mph 16.1 mph N/A   Overcast
9:55 PM 19.6 °F - 10.0 °F 66% 29.93 in 10.0 mi Calm Calm - N/A   Overcast
10:15 PM 19.4 °F 11.5 °F 9.9 °F 66% 29.93 in 10.0 mi NNW 5.8 mph - N/A   Overcast
10:35 PM 19.4 °F - 9.7 °F 66% 29.93 in 10.0 mi Calm Calm - N/A   Overcast
10:55 PM 19.6 °F - 10.2 °F 67% 29.93 in 10.0 mi Calm Calm - N/A   Overcast
11:15 PM 19.4 °F 10.4 °F 9.3 °F 65% 29.92 in 10.0 mi NNW 6.9 mph - N/A   Overcast
11:35 PM 19.0 °F 7.5 °F 8.6 °F 64% 29.93 in 10.0 mi NNW 10.4 mph - N/A   Overcast
11:55 PM 18.9 °F 6.5 °F 7.7 °F 62% 29.94 in 10.0 mi NNW 11.5 mph - N/A   Overcast